705  
AXUS43 KLBF 180110  
MISLBF  
 
WESTERN AND NORTH CENTRAL NEBRASKA HOURLY WEATHER ROUNDUP  
NATIONAL WEATHER SERVICE NORTH PLATTE NE  
800 PM CDT WED AUG 17 2022  
 
NOTE: "FAIR" INDICATES FEW OR NO CLOUDS BELOW 12,000 FEET WITH NO  
SIGNIFICANT WEATHER AND/OR OBSTRUCTIONS TO VISIBILITY.  
 
NOTE: STATIONS NOT REPORTING SKY/WEATHER AND PRESSURE ARE  
PROVIDED BY RAWS AND APRS NETWORKS AND ARE NOT UNDER NATIONAL  
WEATHER SERVICE QUALITY CONTROL.  
   
..OBSERVATIONS IN AND NEAR THE EASTERN PANHANDLE OF NEBRASKA
 
 
 
CITY SKY/WX TMP DP RH WIND PRES REMARKS  
PINE RIDGE TSTM 73 52 47 N25G37 30.19R  
GORDON CLOUDY 76 63 64 CALM 30.13R  
CHADRON LGT RAIN 69 52 54 E25G40 30.12R  
ALLIANCE PTCLDY 81 48 31 E14 30.13S  
SIDNEY CLEAR 82 44 26 S8 30.14S  
CRESCENT LAKE N/A 79 50 35 E6 N/A  

 
   
..OBSERVATIONS IN NORTHERN NEBRASKA AND FAR SOUTHERN SOUTH DAKOTA
 
 
 
CITY SKY/WX TMP DP RH WIND PRES REMARKS  
WINNER PTCLDY 82 59 45 S9 30.06S  
VALENTINE MOCLDY 78 58 49 S8 30.11R  
AINSWORTH CLEAR 77 56 48 S7 30.12R  
O'NEILL CLEAR 77 58 51 S6 30.11R  
THEDFORD PTCLDY 75 56 51 S7 30.16R  
BROKEN BOW CLEAR 75 57 53 S8 30.13S  
ORD CLEAR 78 58 49 S7 30.10F  
ALBION CLEAR 74 64 69 SE5 30.12S  
EWING N/A 77 65 66 CALM N/A  
CHAMBERS N/A 76 60 57 CALM N/A  
BUTTE N/A 77 61 57 S5 N/A  
SPRINGVIEW N/A 82 61 48 S3 N/A  
HALSEY N/A 79 56 44 S6G13 N/A  

 
   
..OBSERVATIONS IN SOUTHWEST NEBRASKA AND FAR NORTHEAST COLORADO
 
 
 
CITY SKY/WX TMP DP RH WIND PRES REMARKS  
HOLYOKE CLEAR 79 55 44 SE13 30.16S  
IMPERIAL PTCLDY 76 60 57 SE8 30.15F  
OGALLALA CLEAR 78 60 53 SE10 30.15S  
NORTH PLATTE CLEAR 75 57 53 SW8 30.15R  
MCCOOK CLEAR 77 55 46 SE7 30.13F  
LEXINGTON CLEAR 75 59 57 SE8 30.13F  
CALLAWAY N/A 77 65 67 SE7 N/A  
STAPLETON N/A 76 60 56 CALM N/A  

 
   
..OBSERVATIONS IN CENTRAL LINCOLN COUNTY AREA
 
 
 
CITY SKY/WX TMP DP RH WIND PRES REMARKS  
N.P. AIRPORT CLEAR 75 57 53 SW8 30.15R  
N.P. HILLCREST N/A 74 59 58 S3 N/A  
N.P. DOWNTOWN N/A 75 59 58 CALM N/A  

 
   
..OBSERVATIONS ACROSS THE ROCKIES AND WESTERN HIGH PLAINS
 
 
 
CITY SKY/WX TMP DP RH WIND PRES REMARKS  
SCOTTSBLUFF PTCLDY 83 51 33 E7 30.12S  
KIMBALL CLEAR 81 42 25 CALM 30.19S  
CHEYENNE CLEAR 79 45 29 S10 30.25F  
DENVER PTCLDY 80 34 19 E8 30.22S  
STEAMBOAT FAIR 79 32 18 NE13G18 30.26S  
COPPER MTN MOCLDY 59 43 55 E3 30.70S  
LEADVILLE PTSUNNY 60 45 57 VRB3 30.53S  
ASPEN MOSUNNY 73 46 38 SE8 30.33S  
GUNNISON PTSUNNY 66 55 67 SW3 30.36F  
TELLURIDE PTSUNNY 55 54 94 CALM 30.49F  
LARAMIE CLEAR 75 32 20 E8 30.34S  
CASPER SUNNY 80 50 34 NE6 30.18S  
GILLETTE MOSUNNY 82 48 30 E15 30.11R  
SHERIDAN SUNNY 88 41 19 NW17 30.12S  
JACKSON MOSUNNY 86 37 17 NW3 30.26F  

 
   
..OBSERVATIONS ACROSS THE NORTHERN PLAINS
 
 
 
CITY SKY/WX TMP DP RH WIND PRES REMARKS  
RAPID CITY MOCLDY 74 55 51 E7 30.11R  
PIERRE MOCLDY 85 55 35 S8 30.00F  
SIOUX FALLS PTCLDY 78 62 57 S9 30.07F  
ABERDEEN PTCLDY 80 65 59 S7 29.98F  
WILLISTON FAIR 82 59 44 CALM 29.99S  
DICKINSON PTCLDY 84 56 38 SW8 29.99F  
BISMARCK MOCLDY 87 56 34 CALM 29.96F  
FARGO PTCLDY 79 67 66 N3 29.95F  
GRAND FORKS MOCLDY 82 64 54 E5 29.94F  

 
   
..OBSERVATIONS ACROSS THE CENTRAL AND SOUTHERN PLAINS
 
 
 
CITY SKY/WX TMP DP RH WIND PRES REMARKS  
GRAND ISLAND CLEAR 76 58 53 S6 30.13F  
LINCOLN CLEAR 79 59 50 NE6 30.10F  
OMAHA PTCLDY 79 60 52 E3 30.09F  
DES MOINES PTCLDY 78 57 48 SE3 30.09F  
KANSAS CITY PTCLDY 79 60 52 E7 30.08S  
WICHITA CLOUDY 79 63 57 S7 30.06F  
DODGE CITY PTCLDY 74 59 59 NE5 30.13F  
OKLAHOMA CITY CLOUDY 75 66 73 NE12 30.05S  
DALLAS MOCLDY 97 69 40 NE16G25 29.87S HX 103  
AMARILLO MOCLDY 76 61 59 NE12 30.14S  

 
 
 
CLICK HERE TO GO TO PREVIOUS BULLETINS.

The Nexlab NE Page Main Text Page